When you browse on this site, cookies collect data to enhance your experience and personalize the content and advertising you see.
Visit our Privacy Policy to learn more. By continuing to use the site, you agree to this use of cookies and data.

Stündliche Wetter Lisburn

Heute, 8 Juli, Mittwoch

Zeit Temperatur Niederschläge Wind Luftdruck Luftfeuchtigkeit
00:00 +11°C° 0 mm 1 m/S 757 mmHg 94%
01:00 +10°C° 0 mm 1 m/S 757 mmHg 94%
02:00 +10°C° 0 mm 1 m/S 757 mmHg 93%
03:00 +9°C° 0 mm 1 m/S 757 mmHg 93%
04:00 +10°C° 0 mm 1 m/S 757 mmHg 92%
05:00 +10°C° 0 mm 1 m/S 757 mmHg 91%
06:00 +11°C° 0 mm 1 m/S 757 mmHg 90%
07:00 +12°C° 0 mm 1 m/S 757 mmHg 86%
08:00 +14°C° 0 mm 1 m/S 757 mmHg 81%
09:00 +15°C° 0 mm 1 m/S 758 mmHg 76%
10:00 +16°C° 0 mm 2 m/S 758 mmHg 75%
11:00 +16°C° 0 mm 2 m/S 757 mmHg 73%
12:00 +17°C° 0 mm 2 m/S 757 mmHg 71%
13:00 +17°C° 0 mm 2 m/S 757 mmHg 73%
14:00 +16°C° 0 mm 2 m/S 757 mmHg 75%
15:00 +16°C° 0 mm 2 m/S 757 mmHg 77%
16:00 +15°C° 0.6 mm 2 m/S 756 mmHg 83%
17:00 +14°C° 0.6 mm 2 m/S 756 mmHg 88%
18:00 +13°C° 0.6 mm 2 m/S 756 mmHg 94%
19:00 +12°C° 0.5 mm 2 m/S 756 mmHg 95%
20:00 +12°C° 0.5 mm 1 m/S 756 mmHg 96%
21:00 +11°C° 0.5 mm 1 m/S 756 mmHg 97%
22:00 +11°C° 0.2 mm 1 m/S 755 mmHg 96%
23:00 +11°C° 0.2 mm 1 m/S 755 mmHg 96%

Morgen, 9 Juli, Donnerstag

Zeit Temperatur Niederschläge Wind Luftdruck Luftfeuchtigkeit
00:00 +10°C° 0.2 mm 2 m/S 755 mmHg 96%
01:00 +10°C° 0.4 mm 2 m/S 755 mmHg 96%
02:00 +10°C° 0.4 mm 2 m/S 754 mmHg 96%
03:00 +10°C° 0.4 mm 3 m/S 754 mmHg 96%
04:00 +10°C° 0.2 mm 3 m/S 754 mmHg 96%
05:00 +11°C° 0.2 mm 3 m/S 754 mmHg 96%
06:00 +11°C° 0.2 mm 4 m/S 754 mmHg 96%
07:00 +11°C° 0 mm 4 m/S 754 mmHg 96%
08:00 +12°C° 0 mm 4 m/S 754 mmHg 95%
09:00 +12°C° 0 mm 3 m/S 754 mmHg 94%
10:00 +13°C° 0 mm 3 m/S 755 mmHg 92%
11:00 +13°C° 0 mm 3 m/S 755 mmHg 90%
12:00 +14°C° 0 mm 4 m/S 755 mmHg 88%
13:00 +13°C° 0.1 mm 4 m/S 755 mmHg 88%
14:00 +13°C° 0.1 mm 4 m/S 755 mmHg 87%
15:00 +13°C° 0.1 mm 4 m/S 756 mmHg 87%
16:00 +12°C° 0 mm 5 m/S 756 mmHg 84%
17:00 +12°C° 0 mm 5 m/S 756 mmHg 81%
18:00 +12°C° 0 mm 5 m/S 756 mmHg 79%
19:00 +10°C° 0 mm 5 m/S 756 mmHg 80%
20:00 +9°C° 0 mm 5 m/S 756 mmHg 82%
21:00 +8°C° 0 mm 5 m/S 757 mmHg 83%
22:00 +8°C° 0 mm 5 m/S 757 mmHg 84%
23:00 +7°C° 0 mm 5 m/S 757 mmHg 86%

übermorgen, 10 Juli, Freitag

Zeit Temperatur Niederschläge Wind Luftdruck Luftfeuchtigkeit
00:00 +7°C° 0 mm 5 m/S 758 mmHg 87%
01:00 +7°C° 0 mm 5 m/S 758 mmHg 88%
02:00 +7°C° 0 mm 6 m/S 758 mmHg 88%
03:00 +7°C° 0 mm 6 m/S 758 mmHg 88%
04:00 +8°C° 0 mm 6 m/S 758 mmHg 87%
05:00 +8°C° 0 mm 6 m/S 758 mmHg 87%
06:00 +9°C° 0 mm 6 m/S 759 mmHg 86%
07:00 +10°C° 0.1 mm 6 m/S 759 mmHg 82%
08:00 +11°C° 0.1 mm 6 m/S 760 mmHg 79%
09:00 +13°C° 0.1 mm 6 m/S 760 mmHg 76%
10:00 +14°C° 0.1 mm 6 m/S 760 mmHg 74%
11:00 +14°C° 0.1 mm 6 m/S 761 mmHg 73%
12:00 +15°C° 0.1 mm 6 m/S 761 mmHg 71%
13:00 +15°C° 0.2 mm 6 m/S 761 mmHg 70%
14:00 +15°C° 0.2 mm 6 m/S 762 mmHg 69%
15:00 +15°C° 0.2 mm 6 m/S 762 mmHg 67%
16:00 +15°C° 0.1 mm 6 m/S 762 mmHg 71%
17:00 +14°C° 0.1 mm 6 m/S 762 mmHg 74%
18:00 +14°C° 0.1 mm 5 m/S 763 mmHg 78%
19:00 +13°C° 0 mm 5 m/S 763 mmHg 83%
20:00 +11°C° 0 mm 4 m/S 763 mmHg 88%
21:00 +10°C° 0 mm 3 m/S 764 mmHg 93%
22:00 +9°C° 0 mm 3 m/S 764 mmHg 94%
23:00 +9°C° 0 mm 3 m/S 764 mmHg 95%

11 Juli, Samstag

Zeit Temperatur Niederschläge Wind Luftdruck Luftfeuchtigkeit
00:00 +8°C° 0 mm 3 m/S 764 mmHg 96%
01:00 +8°C° 0 mm 3 m/S 764 mmHg 96%
02:00 +8°C° 0 mm 3 m/S 764 mmHg 97%
03:00 +7°C° 0 mm 3 m/S 765 mmHg 97%
04:00 +8°C° 0 mm 3 m/S 765 mmHg 96%
05:00 +9°C° 0 mm 3 m/S 765 mmHg 96%
06:00 +9°C° 0 mm 3 m/S 765 mmHg 95%
07:00 +11°C° 0 mm 3 m/S 765 mmHg 90%
08:00 +12°C° 0 mm 3 m/S 765 mmHg 85%
09:00 +14°C° 0 mm 3 m/S 766 mmHg 80%
10:00 +14°C° 0 mm 3 m/S 766 mmHg 76%
11:00 +16°C° 0 mm 3 m/S 766 mmHg 72%
12:00 +17°C° 0 mm 3 m/S 766 mmHg 68%
13:00 +17°C° 0 mm 3 m/S 766 mmHg 68%
14:00 +17°C° 0 mm 2 m/S 766 mmHg 68%
15:00 +17°C° 0 mm 2 m/S 766 mmHg 69%
16:00 +17°C° 0 mm 2 m/S 766 mmHg 72%
17:00 +17°C° 0 mm 2 m/S 766 mmHg 75%
18:00 +16°C° 0 mm 2 m/S 766 mmHg 79%
19:00 +15°C° 0 mm 2 m/S 766 mmHg 83%
20:00 +14°C° 0 mm 2 m/S 766 mmHg 88%
21:00 +12°C° 0 mm 1 m/S 766 mmHg 93%
22:00 +12°C° 0 mm 2 m/S 766 mmHg 93%
23:00 +10°C° 0 mm 2 m/S 766 mmHg 93%

12 Juli, Sonntag

Zeit Temperatur Niederschläge Wind Luftdruck Luftfeuchtigkeit
00:00 +10°C° 0 mm 2 m/S 766 mmHg 94%
01:00 +10°C° 0 mm 2 m/S 765 mmHg 93%
02:00 +10°C° 0 mm 2 m/S 765 mmHg 92%
03:00 +12°C° 0 mm 2 m/S 765 mmHg 91%
04:00 +12°C° 0 mm 2 m/S 765 mmHg 89%
05:00 +12°C° 0 mm 2 m/S 765 mmHg 86%
06:00 +11°C° 0 mm 3 m/S 765 mmHg 84%
07:00 +12°C° 0 mm 3 m/S 765 mmHg 81%
08:00 +14°C° 0 mm 3 m/S 765 mmHg 78%
09:00 +15°C° 0 mm 4 m/S 765 mmHg 75%
10:00 +17°C° 0 mm 4 m/S 765 mmHg 75%
11:00 +18°C° 0 mm 4 m/S 765 mmHg 74%
12:00 +18°C° 0 mm 4 m/S 766 mmHg 74%
13:00 +19°C° 0 mm 4 m/S 765 mmHg 74%
14:00 +19°C° 0 mm 4 m/S 765 mmHg 74%
15:00 +19°C° 0 mm 4 m/S 765 mmHg 74%
16:00 +19°C° 0 mm 4 m/S 765 mmHg 76%
17:00 +18°C° 0 mm 4 m/S 765 mmHg 78%
18:00 +18°C° 0 mm 4 m/S 764 mmHg 80%
19:00 +17°C° 0 mm 3 m/S 764 mmHg 83%
20:00 +14°C° 0 mm 3 m/S 764 mmHg 85%
21:00 +13°C° 0 mm 3 m/S 764 mmHg 88%
22:00 +12°C° 0 mm 3 m/S 764 mmHg 87%
23:00 +12°C° 0 mm 3 m/S 764 mmHg 86%

13 Juli, Montag

Zeit Temperatur Niederschläge Wind Luftdruck Luftfeuchtigkeit
00:00 +12°C° 0 mm 3 m/S 764 mmHg 85%
01:00 +11°C° 0 mm 3 m/S 764 mmHg 83%
02:00 +11°C° 0 mm 3 m/S 763 mmHg 81%
03:00 +11°C° 0 mm 3 m/S 763 mmHg 79%
04:00 +11°C° 0 mm 3 m/S 763 mmHg 81%
05:00 +12°C° 0 mm 3 m/S 763 mmHg 84%
06:00 +12°C° 0 mm 3 m/S 762 mmHg 86%
07:00 +12°C° 0.4 mm 3 m/S 762 mmHg 89%
08:00 +12°C° 0.4 mm 3 m/S 762 mmHg 91%
09:00 +12°C° 0.4 mm 3 m/S 762 mmHg 93%
10:00 +12°C° 0.5 mm 3 m/S 762 mmHg 94%
11:00 +12°C° 0.5 mm 3 m/S 762 mmHg 95%
12:00 +13°C° 0.5 mm 3 m/S 762 mmHg 96%
13:00 +13°C° 0.3 mm 3 m/S 762 mmHg 96%
14:00 +13°C° 0.3 mm 3 m/S 762 mmHg 96%
15:00 +13°C° 0.3 mm 3 m/S 761 mmHg 96%
16:00 +14°C° 0.1 mm 3 m/S 761 mmHg 95%
17:00 +14°C° 0.1 mm 3 m/S 761 mmHg 94%
18:00 +16°C° 0.1 mm 3 m/S 761 mmHg 93%
19:00 +15°C° 0.1 mm 2 m/S 761 mmHg 94%
20:00 +15°C° 0.1 mm 2 m/S 761 mmHg 95%
21:00 +14°C° 0.1 mm 2 m/S 761 mmHg 96%
22:00 +14°C° 0 mm 2 m/S 761 mmHg 96%
23:00 +13°C° 0 mm 2 m/S 761 mmHg 96%
Mehr zeigen